Weather reports worldwide

Advertisment
Emden, Germany (10200): temperature & dewpoint: 13.08.2019 00:00:00 - 19.08.2019 00:00:00 (CEST)Emden, Germany (10200): temperature 5cm & temperature -5cm: 13.08.2019 00:00:00 - 19.08.2019 00:00:00 (CEST)Emden, Germany (10200): temperature -20cm & temperature -100cm: 13.08.2019 00:00:00 - 19.08.2019 00:00:00 (CEST)Emden, Germany (10200): wind speed & gusts: 13.08.2019 00:00:00 - 19.08.2019 00:00:00 (CEST)Emden, Germany (10200): wind direction: 13.08.2019 00:00:00 - 19.08.2019 00:00:00 (CEST)Emden, Germany (10200): reduced air pressure: 13.08.2019 00:00:00 - 19.08.2019 00:00:00 (CEST)Emden, Germany (10200): visibility: 13.08.2019 00:00:00 - 19.08.2019 00:00:00 (CEST)Emden, Germany (10200): sunshine duration: 13.08.2019 00:00:00 - 19.08.2019 00:00:00 (CEST)Emden, Germany (10200): precipitation: 13.08.2019 00:00:00 - 19.08.2019 00:00:00 (CEST)
Date & Time tt [°C] td [°C] tt 5cm [°C] tt -5cm [°C] tt -20cm [°C] tt -100cm [°C] ff [km/h] ff [kn] fx [km/h] fx [kn] dd ppp [hPa] vv [km] sd [min] rr [mm]
19.08.2019 00:00:00 16,3 13,4 15,0 16,0 18,5 17,3 9 5 16 9 SSW 1008,2 68 0 0,0
18.08.2019 23:00:00 16,9 13,6 16,2 16,5 18,6 17,3 10 5 18 10 SSW 1007,7 68 0 0,0
18.08.2019 22:00:00 17,0 12,9 15,3 16,8 18,7 17,3 11 6 19 11 SSW 1007,5 68 0 0,0
18.08.2019 21:00:00 17,6 12,8 15,9 17,7 18,7 17,4 8 4 19 10 SW 1006,7 61 0 0,0
18.08.2019 20:00:00 18,3 13,4 17,8 18,9 18,7 17,4 11 6 27 15 SW 1006,1 72 29 0,0
18.08.2019 19:00:00 18,5 13,5 18,7 19,5 18,6 17,4 13 7 26 14 SW 1005,8 66 29 0,0
18.08.2019 18:00:00 18,1 12,8 18,4 19,6 18,5 17,4 16 9 29 16 WSW 1005,5 75 8 0,0
18.08.2019 17:00:00 17,7 14,2 18,7 19,3 18,4 17,4 17 9 29 15 SW 1005,1 51 0 0,0
18.08.2019 16:00:00 18,4 13,4 19,3 20,2 18,2 17,4 17 9 29 15 SSW 1004,6 66 1 0,0
18.08.2019 15:00:00 18,6 13,6 20,8 20,2 18,0 17,4 18 10 29 16 SSW 1004,0 67 0 0,0
18.08.2019 14:00:00 17,2 14,0 18,5 19,0 18,0 17,4 14 8 32 18 SSW 1003,9 41 0 0,0
18.08.2019 13:00:00 16,5 14,6 16,8 18,1 17,9 17,4 15 8 32 17 S 1003,8 36 0 0,1
18.08.2019 12:00:00 16,3 13,4 17,0 17,7 17,9 17,4 17 9 29 15 S 1004,2 48 0 0,0
18.08.2019 11:00:00 16,0 13,3 16,6 17,3 17,9 17,4 16 9 32 17 S 1004,1 65 0 0,0
18.08.2019 10:00:00 16,2 15,2 16,2 16,7 17,9 17,4 16 8 26 14 S 1003,8 19 0 0,0
18.08.2019 09:00:00 15,7 14,9 15,6 16,3 18,0 17,4 14 8 26 14 S 1004,3 19 0 0,2
18.08.2019 08:00:00 15,7 14,9 15,4 16,1 18,1 17,4 9 5 19 10 S 1004,4 18 0 0,4
18.08.2019 07:00:00 15,8 14,3 15,4 15,9 18,2 17,4 9 5 21 12 S 1004,5 29 0 0,0
18.08.2019 06:00:00 15,9 14,2 15,4 16,0 18,3 17,4 13 7 22 12 SSW 1005,0 30 0 0,0
18.08.2019 05:00:00 16,1 14,6 15,5 16,2 18,5 17,4 9 5 16 8 S 1004,9 29 0 0,0
18.08.2019 04:00:00 16,0 15,2 15,3 16,3 18,6 17,4 8 4 17 9 SSW 1005,4 25 0 0,0
18.08.2019 03:00:00 16,2 15,4 15,5 16,4 18,8 17,4 9 5 17 9 SSW 1005,7 25 0 0,0
18.08.2019 02:00:00 16,2 15,4 15,4 16,6 18,9 17,4 8 4 15 8 SSW 1005,8 29 0 0,0
18.08.2019 01:00:00 16,2 15,4 15,3 16,8 19,1 17,4 6 4 13 7 SSW 1006,1 33 0 0,0
18.08.2019 00:00:00 16,5 15,5 15,6 17,1 19,2 17,4 9 5 22 12 SW 1005,9 35 0 0,0
17.08.2019 23:00:00 17,0 15,8 16,3 17,6 19,4 17,4 14 7 20 11 SSW 1006,0 59 0 0,0
17.08.2019 22:00:00 17,1 16,0 16,2 18,2 19,5 17,4 14 8 26 14 SSW 1005,7 61 0 0,0
17.08.2019 21:00:00 17,2 15,5 16,3 19,2 19,5 17,4 14 8 28 15 SSW 1005,3 75 0 0,1
17.08.2019 20:00:00 18,5 16,9 18,4 20,2 19,4 17,4 15 8 36 19 S 1005,3 70 0 0,0
17.08.2019 19:00:00 19,4 17,1 19,7 21,2 19,2 17,4 23 12 43 23 S 1005,5 48 0 0,0
17.08.2019 18:00:00 21,0 16,6 22,0 22,3 19,0 17,4 24 13 40 22 SSW 1005,5 75 48 0,0
17.08.2019 17:00:00 21,3 16,7 22,4 22,3 18,7 17,4 20 11 39 21 S 1005,5 72 20 0,0
17.08.2019 16:00:00 21,1 16,6 22,2 22,3 18,5 17,4 22 12 46 25 SSW 1005,2 55 38 0,0
17.08.2019 15:00:00 20,9 16,7 23,6 21,4 18,3 17,4 26 14 40 22 SSW 1005,4 61 25 0,0
17.08.2019 14:00:00 19,2 16,2 19,7 19,6 18,2 17,4 21 12 35 19 SSW 1005,5 53 4 0,0
17.08.2019 13:00:00 18,2 16,4 18,3 18,5 18,1 17,4 20 11 37 20 SSW 1005,6 32 0 0,0
17.08.2019 12:00:00 17,6 16,2 17,6 18,2 18,1 17,4 21 12 39 21 SSW 1005,3 20 0 0,0
17.08.2019 11:00:00 17,3 15,9 17,3 17,8 18,1 17,5 22 12 40 22 SSW 1005,0 47 0 0,4
17.08.2019 10:00:00 17,3 15,1 17,5 17,3 18,1 17,5 19 11 37 20 SSW 1005,1 65 0 0,0
17.08.2019 09:00:00 17,1 14,7 16,9 16,8 18,2 17,5 17 9 30 16 S 1005,1 54 0 0,0
17.08.2019 08:00:00 16,4 14,5 15,7 16,4 18,3 17,5 14 8 28 15 S 1005,0 57 0 0,6
17.08.2019 07:00:00 16,0 14,5 15,3 16,3 18,4 17,5 15 8 24 13 S 1005,4 7 0 0,4
17.08.2019 06:00:00 16,1 14,1 15,3 16,3 18,5 17,5 15 8 27 15 S 1005,5 49 0 0,0
17.08.2019 05:00:00 15,9 14,1 15,1 16,4 18,6 17,5 15 8 27 15 SSE 1006,0 49 0 0,4
17.08.2019 04:00:00 16,3 14,2 15,3 16,5 18,8 17,5 13 7 26 14 S 1006,8 27 0 0,8
17.08.2019 03:00:00 16,0 14,2 15,1 16,7 18,9 17,5 15 8 24 13 S 1007,8 25 0 0,7
17.08.2019 02:00:00 16,6 13,8 15,2 16,8 19,1 17,5 15 8 24 13 S 1008,4 30 0 0,4
17.08.2019 01:00:00 16,9 13,6 15,5 17,1 19,2 17,5 16 8 24 13 SSE 1009,1 39 0 0,2
17.08.2019 00:00:00 17,6 13,3 16,6 17,4 19,4 17,5 14 8 27 15 S 1010,1 41 0 0,0
16.08.2019 23:00:00 17,7 13,5 16,6 17,8 19,5 17,5 13 7 19 11 SSE 1010,6 28 0 0,0
16.08.2019 22:00:00 18,5 13,4 17,7 18,3 19,6 17,5 11 6 17 9 SSE 1011,0 40 0 0,0
16.08.2019 21:00:00 19,3 13,0 18,5 18,9 19,7 17,5 9 5 23 13 S 1011,5 40 0 0,0
16.08.2019 20:00:00 20,1 12,3 19,4 19,8 19,7 17,5 12 7 27 15 SSW 1011,6 47 0 0,0
16.08.2019 19:00:00 20,3 12,6 20,0 20,9 19,6 17,5 19 11 31 17 SSW 1012,0 48 8 0,0
16.08.2019 18:00:00 20,8 12,1 21,2 21,5 19,5 17,5 17 9 31 17 SSW 1012,5 61 9 0,0
16.08.2019 17:00:00 20,5 11,0 21,2 22,7 19,3 17,5 17 9 30 16 SSW 1013,0 75 26 0,0
16.08.2019 16:00:00 20,5 10,9 22,0 23,1 19,0 17,5 14 8 30 16 SSW 1013,5 75 39 0,0
16.08.2019 15:00:00 20,9 11,3 24,0 22,4 18,8 17,5 13 7 30 16 SSW 1014,2 67 33 0,0
16.08.2019 14:00:00 20,0 11,1 22,5 22,1 18,5 17,5 16 8 29 15 SSW 1014,6 66 38 0,0
16.08.2019 13:00:00 19,7 10,5 21,7 22,1 18,2 17,5 13 7 26 14 SW 1014,7 75 28 0,0
16.08.2019 12:00:00 18,7 12,2 19,9 21,7 17,9 17,5 15 8 26 14 SW 1015,1 55 43 0,0
16.08.2019 11:00:00 19,1 13,3 22,2 19,9 17,8 17,5 11 6 18 10 W 1015,3 47 32 0,0
16.08.2019 10:00:00 17,8 13,2 20,2 18,7 17,7 17,5 9 5 14 8 SW 1015,4 60 46 0,0
16.08.2019 09:00:00 16,5 14,2 16,7 16,8 17,8 17,5 10 5 15 8 WSW 1015,3 51 0 0,0
16.08.2019 08:00:00 15,4 14,1 15,3 16,0 17,9 17,5 10 6 16 9 WSW 1015,1 41 11 0,0
16.08.2019 07:00:00 15,1 14,2 15,1 15,6 18,0 17,5 8 4 13 7 W 1014,6 41 3 0,0
16.08.2019 06:00:00 14,9 14,1 14,6 15,7 18,1 17,5 10 5 18 10 WSW 1014,2 35 0 0,6
16.08.2019 05:00:00 15,1 14,2 14,7 15,8 18,2 17,5 10 5 18 10 WSW 1013,6 35 0 0,6
16.08.2019 04:00:00 15,3 14,1 14,8 15,8 18,3 17,6 11 6 29 16 W 1013,5 9 0 0,0
16.08.2019 03:00:00 15,6 13,5 15,0 16,0 18,5 17,6 15 8 25 14 WSW 1013,1 18 0 0,0
16.08.2019 02:00:00 16,1 13,6 15,7 16,4 18,6 17,6 15 8 25 14 WSW 1012,9 48 0 0,0
16.08.2019 01:00:00 16,3 14,0 16,0 16,7 18,7 17,6 15 8 27 15 WSW 1012,7 53 0 0,0
16.08.2019 00:00:00 16,4 14,4 15,9 17,0 18,8 17,6 13 7 30 16 WSW 1012,4 49 0 0,0
15.08.2019 23:00:00 16,6 14,3 16,0 17,3 18,9 17,6 16 9 28 15 WSW 1011,8 54 0 0,0
15.08.2019 22:00:00 16,7 14,5 16,1 17,7 19,0 17,6 13 7 23 12 WSW 1011,2 44 0 0,0
15.08.2019 21:00:00 16,7 14,4 16,1 18,4 19,0 17,6 12 6 28 15 WSW 1010,3 61 0 0,1
15.08.2019 20:00:00 16,8 15,1 16,3 19,4 19,0 17,6 21 11 35 19 W 1009,8 11 2 0,2
15.08.2019 19:00:00 18,6 14,5 19,0 20,4 18,8 17,6 23 13 39 21 W 1009,0 64 15 0,0
15.08.2019 18:00:00 19,0 14,7 19,3 20,9 18,7 17,6 27 14 42 23 W 1008,5 64 18 0,0
15.08.2019 17:00:00 19,5 14,6 19,5 21,1 18,5 17,6 26 14 43 23 W 1008,0 70 11 0,1
15.08.2019 16:00:00 19,1 14,9 18,9 21,3 18,2 17,6 24 13 40 22 W 1007,3 56 12 0,0
15.08.2019 15:00:00 19,5 15,6 21,1 20,9 18,0 17,6 29 15 40 21 W 1006,8 53 5 0,0
15.08.2019 14:00:00 18,5 16,9 19,3 19,6 17,9 17,6 22 12 34 18 W 1006,3 44 1 2,5
15.08.2019 13:00:00 18,2 16,2 18,1 19,2 17,8 17,6 18 10 37 20 SSW 1005,6 39 5 0,0
15.08.2019 12:00:00 17,7 16,5 17,8 17,4 17,7 17,6 15 8 36 19 SSW 1005,5 24 0 1,2
15.08.2019 11:00:00 16,7 16,0 16,7 17,2 17,7 17,6 16 9 34 19 S 1005,3 19 0 1,9
15.08.2019 10:00:00 16,7 15,9 16,5 17,0 17,7 17,6 18 10 34 18 S 1005,5 9 0 0,2
15.08.2019 09:00:00 16,2 15,4 16,5 16,2 17,7 17,6 13 7 30 16 S 1005,7 22 0 0,0
15.08.2019 08:00:00 15,6 15,0 15,4 15,8 17,8 17,6 14 8 27 15 S 1006,1 10 0 0,5
15.08.2019 07:00:00 14,9 14,5 14,9 15,5 17,9 17,6 13 7 24 13 S 1006,2 6 0 1,4
15.08.2019 06:00:00 14,6 14,1 14,5 15,4 18,0 17,6 16 8 31 17 S 1006,7 9 0 0,0
15.08.2019 05:00:00 14,2 13,4 13,9 15,3 18,1 17,6 16 9 33 18 SSE 1007,5 12 0 0,0
15.08.2019 04:00:00 14,0 13,2 13,7 15,4 18,3 17,6 21 12 33 18 SSE 1008,5 23 0 0,7
15.08.2019 03:00:00 13,9 12,9 13,5 15,6 18,4 17,6 19 10 32 17 SSE 1009,7 12 0 1,3
15.08.2019 02:00:00 14,1 13,0 13,7 15,9 18,5 17,6 15 8 23 12 SSE 1010,9 9 0 1,0
15.08.2019 01:00:00 14,7 12,8 13,9 16,1 18,7 17,6 11 6 19 10 S 1011,9 13 0 0,5
15.08.2019 00:00:00 15,8 12,0 14,9 16,3 18,8 17,6 12 7 31 17 S 1012,3 49 0 0,0
14.08.2019 23:00:00 17,1 11,8 16,1 16,6 18,9 17,6 16 9 26 14 SSW 1012,8 50 0 0,0
14.08.2019 22:00:00 15,2 12,4 14,7 17,0 19,0 17,6 9 5 13 7 SE 1012,9 57 0 0,0
14.08.2019 21:00:00 15,6 12,8 14,9 17,7 19,1 17,6 6 3 16 9 ESE 1013,1 56 0 0,0
14.08.2019 20:00:00 16,3 13,0 16,3 18,4 19,1 17,6 7 4 14 8 E 1013,7 56 0 0,0
14.08.2019 19:00:00 16,7 12,3 17,0 18,8 19,1 17,6 8 5 14 7 NE 1014,2 63 0 0,0
14.08.2019 18:00:00 16,7 12,5 17,4 19,7 19,0 17,6 9 5 16 9 N 1015,0 67 0 0,0
14.08.2019 17:00:00 17,5 12,4 20,0 20,6 18,9 17,6 9 5 21 12 NNE 1015,0 64 3 0,0
14.08.2019 16:00:00 19,4 9,7 19,9 21,1 18,6 17,6 14 8 34 19 WSW 1015,3 75 4 0,0
14.08.2019 15:00:00 20,7 9,5 24,3 23,4 18,2 17,6 21 11 33 18 SSW 1015,3 75 47 0,0
14.08.2019 14:00:00 19,5 7,9 21,3 23,1 17,8 17,6 20 11 36 19 SW 1015,6 47 59 0,0
14.08.2019 13:00:00 19,4 9,8 22,5 22,6 17,4 17,6 21 11 34 19 SSW 1015,8 54 59 0,0
14.08.2019 12:00:00 17,7 12,1 21,1 21,3 17,1 17,6 11 6 21 11 SSW 1016,3 53 60 0,0
14.08.2019 11:00:00 16,2 11,0 19,9 19,3 16,9 17,6 9 5 16 9 SSW 1016,7 61 58 0,0
14.08.2019 10:00:00 15,2 11,4 18,4 16,5 16,9 17,6 4 2 13 7 SSW 1016,8 54 34 0,0
14.08.2019 09:00:00 13,8 10,7 15,9 14,6 17,0 17,6 11 6 16 9 SSW 1016,8 58 60 0,0
14.08.2019 08:00:00 12,5 10,5 13,2 12,7 17,2 17,6 10 6 18 10 SSW 1016,3 49 60 0,0
14.08.2019 07:00:00 11,4 9,8 10,6 11,9 17,4 17,6 9 5 19 10 SSW 1016,1 34 12 0,0
14.08.2019 06:00:00 11,2 9,8 9,8 12,0 17,6 17,6 10 5 15 8 SSW 1016,0 36 0 0,0
14.08.2019 05:00:00 11,4 10,1 10,1 12,3 17,9 17,6 12 7 21 11 SSW 1016,0 32 0 0,0
14.08.2019 04:00:00 11,7 10,4 10,0 12,6 18,1 17,6 7 4 12 6 SSW 1016,0 37 0 0,0
14.08.2019 03:00:00 12,0 10,1 10,2 12,9 18,4 17,7 6 3 16 9 SW 1015,8 47 0 0,0
14.08.2019 02:00:00 12,2 10,6 10,9 13,4 18,6 17,7 9 5 19 10 WSW 1015,8 39 0 0,0
14.08.2019 01:00:00 12,6 10,9 11,3 13,8 18,9 17,7 10 5 21 11 SW 1015,6 55 0 0,0
14.08.2019 00:00:00 12,7 11,0 11,4 14,3 19,1 17,7 10 5 26 14 SW 1015,8 48 0 0,0
13.08.2019 23:00:00 13,2 10,7 11,8 14,9 19,3 17,7 14 8 22 12 SSW 1015,9 75 0 0,0
13.08.2019 22:00:00 13,0 10,9 11,7 15,9 19,5 17,7 10 5 22 12 SSW 1015,9 75 0 0,0
13.08.2019 21:00:00 13,1 11,2 12,2 16,9 19,7 17,7 8 4 13 7 S 1015,9 75 0 0,0
13.08.2019 20:00:00 13,4 10,9 12,9 17,8 19,7 17,7 6 3 19 10 SW 1016,1 75 0 0,6
13.08.2019 19:00:00 13,4 11,2 13,0 18,7 19,7 17,7 13 7 31 17 S 1015,8 56 0 1,0
13.08.2019 18:00:00 15,9 10,2 15,7 20,7 19,6 17,7 13 7 29 16 W 1015,5 65 21 0,1
13.08.2019 17:00:00 18,6 8,7 21,1 22,3 19,3 17,7 17 9 31 17 W 1015,3 75 25 0,0
13.08.2019 16:00:00 18,3 9,6 22,2 22,9 19,1 17,7 15 8 29 16 W 1015,6 75 52 0,0
13.08.2019 15:00:00 17,1 11,3 21,7 21,8 18,9 17,7 10 5 18 10 SSW 1015,5 71 34 0,2
13.08.2019 14:00:00 13,7 10,7 13,2 20,2 18,6 17,7 10 5 29 16 NNW 1015,9 45 10 1,4
13.08.2019 13:00:00 17,5 10,3 21,4 21,3 18,5 17,7 10 5 22 12 WSW 1015,0 73 41 0,0
13.08.2019 12:00:00 15,4 11,3 16,9 19,1 18,4 17,7 13 7 22 12 W 1015,2 75 7 0,0
13.08.2019 11:00:00 14,7 11,4 16,7 17,3 18,4 17,7 11 6 26 14 WNW 1014,9 55 0 0,0
13.08.2019 10:00:00 13,6 11,3 14,1 16,3 18,5 17,7 17 9 26 14 WSW 1014,6 38 3 0,0
13.08.2019 09:00:00 13,6 12,2 14,0 15,4 18,7 17,7 10 5 18 10 WSW 1013,9 53 0 0,4
13.08.2019 08:00:00 13,7 12,4 13,6 15,1 18,8 17,7 15 8 27 15 W 1013,4 49 0 0,2
13.08.2019 07:00:00 13,8 11,4 13,2 15,0 19,0 17,7 14 8 26 14 WSW 1013,0 34 0 0,0
13.08.2019 06:00:00 14,0 11,4 13,3 15,1 19,2 17,7 9 5 16 9 SW 1012,8 44 0 0,0
13.08.2019 05:00:00 14,0 11,2 13,4 15,2 19,4 17,7 9 5 16 9 SW 1012,8 68 0 0,0
13.08.2019 04:00:00 14,4 11,6 13,5 15,7 19,6 17,7 9 5 16 9 SW 1013,0 56 0 0,0
13.08.2019 03:00:00 15,0 11,7 14,3 16,0 19,8 17,7 8 4 21 11 SW 1012,9 61 0 0,0
13.08.2019 02:00:00 15,2 11,8 14,7 16,3 20,0 17,7 8 4 14 7 SW 1013,1 53 0 0,0
13.08.2019 01:00:00 15,3 11,6 14,6 16,5 20,2 17,7 8 5 14 8 WSW 1013,3 50 0 0,0
13.08.2019 00:00:00 15,3 11,5 14,6 16,9 20,4 17,7 10 5 19 10 WSW 1013,5 57 0 0,0

tt = temperature
td = dewpoint
tt 5cm = temperature 5cm
tt -5cm = temperature -5cm
tt -20cm = temperature -20cm
tt -100cm = temperature -100cm
ff = wind speed
fx = gusts
dd = wind direction
ppp = reduced air pressure
vv = visibility
sd = sunshine duration
rr = precipitation

Next stations